Time,TemperatureF,DewpointF,PressureIn,WindDirection,WindDirectionDegrees,WindSpeedMPH,WindSpeedGustMPH,Humidity,HourlyPrecipIn,Conditions,Clouds,dailyrainin,SoftwareType,DateUTC
2013-03-05 00:02:00,47.0,-99.9,30.05,WSW,255,5.0,8.0,-999,-99.99,,,-99.99,,2013-03-05 08:02:00,
2013-03-05 00:11:00,47.0,-99.9,30.05,West,260,3.0,7.0,-999,-99.99,,,-99.99,,2013-03-05 08:11:00,
2013-03-05 00:21:00,47.0,-99.9,30.05,West,260,4.0,8.0,-999,-99.99,,,-99.99,,2013-03-05 08:21:00,
2013-03-05 00:32:00,47.0,-99.9,30.04,West,261,5.0,7.0,-999,-99.99,,,-99.99,,2013-03-05 08:32:00,
2013-03-05 00:42:00,47.0,-99.9,30.04,West,264,4.0,8.0,-999,-99.99,,,-99.99,,2013-03-05 08:42:00,
2013-03-05 00:52:00,47.0,-99.9,30.04,WSW,249,5.0,7.0,-999,-99.99,,,-99.99,,2013-03-05 08:52:00,
2013-03-05 01:02:00,47.0,-99.9,30.04,WSW,248,3.0,6.0,-999,-99.99,,,-99.99,,2013-03-05 09:02:00,
2013-03-05 01:11:00,47.0,-99.9,30.04,West,277,4.0,7.0,-999,-99.99,,,-99.99,,2013-03-05 09:11:00,
2013-03-05 01:22:00,47.0,-99.9,30.04,WSW,248,4.0,6.0,-999,-99.99,,,-99.99,,2013-03-05 09:22:00,
2013-03-05 01:32:00,47.0,-99.9,30.04,West,261,4.0,6.0,-999,-99.99,,,-99.99,,2013-03-05 09:32:00,
2013-03-05 01:43:00,47.0,-99.9,30.04,West,261,4.0,6.0,-999,-99.99,,,-99.99,,2013-03-05 09:43:00,
2013-03-05 01:52:00,47.0,-99.9,30.05,WSW,252,4.0,7.0,-999,-99.99,,,-99.99,,2013-03-05 09:52:00,
2013-03-05 02:02:00,47.0,-99.9,30.05,West,260,5.0,9.0,-999,-99.99,,,-99.99,,2013-03-05 10:02:00,
2013-03-05 02:11:00,47.0,-99.9,30.05,West,266,4.0,9.0,-999,-99.99,,,-99.99,,2013-03-05 10:11:00,
2013-03-05 02:22:00,47.0,-99.9,30.05,West,269,4.0,6.0,-999,-99.99,,,-99.99,,2013-03-05 10:22:00,
2013-03-05 02:32:00,47.0,-99.9,30.05,West,277,4.0,6.0,-999,-99.99,,,-99.99,,2013-03-05 10:32:00,
2013-03-05 02:42:00,47.0,-99.9,30.05,West,259,5.0,8.0,-999,-99.99,,,-99.99,,2013-03-05 10:42:00,
2013-03-05 02:52:00,47.0,-99.9,30.05,WSW,258,6.0,8.0,-999,-99.99,,,-99.99,,2013-03-05 10:52:00,
2013-03-05 03:02:00,47.0,-99.9,30.05,West,261,5.0,6.0,-999,-99.99,,,-99.99,,2013-03-05 11:02:00,
2013-03-05 03:12:00,47.0,-99.9,30.04,West,269,5.0,8.0,-999,-99.99,,,-99.99,,2013-03-05 11:12:00,
2013-03-05 03:22:00,47.0,-99.9,30.04,WSW,251,3.0,8.0,-999,-99.99,,,-99.99,,2013-03-05 11:22:00,
2013-03-05 03:32:00,47.0,-99.9,30.04,WSW,256,4.0,6.0,-999,-99.99,,,-99.99,,2013-03-05 11:32:00,
2013-03-05 03:42:00,47.0,-99.9,30.04,WNW,290,2.0,4.0,-999,-99.99,,,-99.99,,2013-03-05 11:42:00,
2013-03-05 03:52:00,47.0,-99.9,30.04,West,259,4.0,6.0,-999,-99.99,,,-99.99,,2013-03-05 11:52:00,
2013-03-05 04:03:00,48.0,-99.9,30.03,WSW,243,4.0,9.0,-999,-99.99,,,-99.99,,2013-03-05 12:03:00,
2013-03-05 04:12:00,47.0,-99.9,30.03,North,2,1.0,3.0,-999,-99.99,,,-99.99,,2013-03-05 12:12:00,
2013-03-05 04:22:00,48.0,-99.9,30.03,East,98,3.0,7.0,-999,-99.99,,,-99.99,,2013-03-05 12:22:00,
2013-03-05 04:32:00,47.0,-99.9,30.04,West,261,5.0,8.0,-999,-99.99,,,-99.99,,2013-03-05 12:32:00,
2013-03-05 04:42:00,47.0,-99.9,30.04,North,1,1.0,5.0,-999,-99.99,,,-99.99,,2013-03-05 12:42:00,
2013-03-05 04:53:00,47.0,-99.9,30.04,West,275,2.0,4.0,-999,-99.99,,,-99.99,,2013-03-05 12:53:00,
2013-03-05 05:02:00,47.0,-99.9,30.04,West,275,2.0,4.0,-999,-99.99,,,-99.99,,2013-03-05 13:02:00,
2013-03-05 05:12:00,47.0,-99.9,30.04,West,270,4.0,8.0,-999,-99.99,,,-99.99,,2013-03-05 13:12:00,
2013-03-05 05:22:00,47.0,-99.9,30.04,East,89,4.0,7.0,-999,-99.99,,,-99.99,,2013-03-05 13:22:00,
2013-03-05 05:32:00,47.0,-99.9,30.04,ESE,123,5.0,7.0,-999,-99.99,,,-99.99,,2013-03-05 13:32:00,
2013-03-05 05:42:00,47.0,-99.9,30.04,SSE,165,3.0,6.0,-999,-99.99,,,-99.99,,2013-03-05 13:42:00,
2013-03-05 05:52:00,47.0,-99.9,30.04,SE,146,4.0,9.0,-999,-99.99,,,-99.99,,2013-03-05 13:52:00,
2013-03-05 06:02:00,47.0,-99.9,30.03,ESE,121,8.0,10.0,-999,-99.99,,,-99.99,,2013-03-05 14:02:00,
2013-03-05 06:11:00,47.0,-99.9,30.03,ESE,123,9.0,10.0,-999,-99.99,,,-99.99,,2013-03-05 14:11:00,
2013-03-05 06:22:00,47.0,-99.9,30.04,SE,128,5.0,9.0,-999,-99.99,,,-99.99,,2013-03-05 14:22:00,
2013-03-05 06:32:00,47.0,-99.9,30.03,ESE,123,8.0,10.0,-999,-99.99,,,-99.99,,2013-03-05 14:32:00,
2013-03-05 06:42:00,47.0,-99.9,30.03,ESE,123,8.0,10.0,-999,-99.99,,,-99.99,,2013-03-05 14:42:00,
2013-03-05 06:52:00,47.0,-99.9,30.03,ESE,123,8.0,10.0,-999,-99.99,,,-99.99,,2013-03-05 14:52:00,
2013-03-05 07:02:00,47.0,-99.9,30.04,SSE,152,3.0,9.0,-999,-99.99,,,-99.99,,2013-03-05 15:02:00,
2013-03-05 07:11:00,47.0,-99.9,30.04,SE,132,4.0,8.0,-999,-99.99,,,-99.99,,2013-03-05 15:11:00,
2013-03-05 07:22:00,47.0,-99.9,30.04,SE,133,7.0,11.0,-999,-99.99,,,-99.99,,2013-03-05 15:22:00,
2013-03-05 07:32:00,47.0,-99.9,30.04,SE,134,6.0,9.0,-999,-99.99,,,-99.99,,2013-03-05 15:32:00,
2013-03-05 07:42:00,47.0,-99.9,30.04,SE,124,7.0,10.0,-999,-99.99,,,-99.99,,2013-03-05 15:42:00,
2013-03-05 07:52:00,48.0,-99.9,30.03,ESE,122,8.0,11.0,-999,-99.99,,,-99.99,,2013-03-05 15:52:00,
2013-03-05 08:02:00,48.0,-99.9,30.04,SSE,152,3.0,9.0,-999,-99.99,,,-99.99,,2013-03-05 16:02:00,
2013-03-05 08:11:00,48.0,-99.9,30.03,SE,125,7.0,9.0,-999,-99.99,,,-99.99,,2013-03-05 16:11:00,
2013-03-05 08:22:00,48.0,-99.9,30.03,SE,146,7.0,10.0,-999,-99.99,,,-99.99,,2013-03-05 16:22:00,
2013-03-05 08:32:00,48.0,-99.9,30.02,SE,127,11.0,17.0,-999,-99.99,,,-99.99,,2013-03-05 16:32:00,
2013-03-05 08:42:00,48.0,-99.9,30.03,ESE,120,7.0,15.0,-999,-99.99,,,-99.99,,2013-03-05 16:42:00,
2013-03-05 08:52:00,48.0,-99.9,30.03,East,96,7.0,9.0,-999,-99.99,,,-99.99,,2013-03-05 16:52:00,
2013-03-05 09:01:00,47.0,-99.9,30.03,ESE,113,9.0,11.0,-999,-99.99,,,-99.99,,2013-03-05 17:01:00,
2013-03-05 09:11:00,48.0,-99.9,30.03,ESE,123,10.0,11.0,-999,-99.99,,,-99.99,,2013-03-05 17:11:00,
2013-03-05 09:22:00,48.0,-99.9,30.03,SE,126,11.0,13.0,-999,-99.99,,,-99.99,,2013-03-05 17:22:00,
2013-03-05 09:32:00,49.0,-99.9,30.03,SE,140,8.0,14.0,-999,-99.99,,,-99.99,,2013-03-05 17:32:00,
2013-03-05 09:42:00,49.0,-99.9,30.02,ESE,119,11.0,13.0,-999,-99.99,,,-99.99,,2013-03-05 17:42:00,
2013-03-05 09:53:00,49.0,-99.9,30.02,ESE,105,5.0,11.0,-999,-99.99,,,-99.99,,2013-03-05 17:53:00,
2013-03-05 10:02:00,49.0,-99.9,30.01,ESE,119,11.0,13.0,-999,-99.99,,,-99.99,,2013-03-05 18:02:00,
2013-03-05 10:11:00,49.0,-99.9,30.01,ESE,115,10.0,11.0,-999,-99.99,,,-99.99,,2013-03-05 18:11:00,
2013-03-05 10:22:00,49.0,-99.9,30.01,ESE,115,11.0,12.0,-999,-99.99,,,-99.99,,2013-03-05 18:22:00,
2013-03-05 10:32:00,49.0,-99.9,30.01,ESE,115,12.0,13.0,-999,-99.99,,,-99.99,,2013-03-05 18:32:00,
2013-03-05 10:42:00,49.0,-99.9,30.01,ESE,119,11.0,12.0,-999,-99.99,,,-99.99,,2013-03-05 18:42:00,
2013-03-05 10:53:00,49.0,-99.9,30.01,ESE,110,9.0,11.0,-999,-99.99,,,-99.99,,2013-03-05 18:53:00,
2013-03-05 11:02:00,49.0,-99.9,30.01,East,98,8.0,10.0,-999,-99.99,,,-99.99,,2013-03-05 19:02:00,
2013-03-05 11:11:00,50.0,-99.9,30.01,ESE,112,9.0,10.0,-999,-99.99,,,-99.99,,2013-03-05 19:11:00,
2013-03-05 11:22:00,50.0,-99.9,30.01,East,83,6.0,9.0,-999,-99.99,,,-99.99,,2013-03-05 19:22:00,
2013-03-05 11:32:00,51.0,-99.9,30.01,NW,324,4.0,8.0,-999,-99.99,,,-99.99,,2013-03-05 19:32:00,
2013-03-05 11:42:00,51.0,-99.9,30.00,ESE,111,6.0,11.0,-999,-99.99,,,-99.99,,2013-03-05 19:42:00,
2013-03-05 11:52:00,52.0,-99.9,30.01,SSW,193,3.0,14.0,-999,-99.99,,,-99.99,,2013-03-05 19:52:00,
2013-03-05 12:02:00,52.0,-99.9,30.01,NE,42,5.0,14.0,-999,-99.99,,,-99.99,,2013-03-05 20:02:00,
2013-03-05 12:11:00,53.0,-99.9,30.00,WNW,300,4.0,9.0,-999,-99.99,,,-99.99,,2013-03-05 20:11:00,
2013-03-05 12:22:00,52.0,-99.9,30.00,SSE,155,7.0,13.0,-999,-99.99,,,-99.99,,2013-03-05 20:22:00,
2013-03-05 12:32:00,52.0,-99.9,30.00,SSE,155,7.0,13.0,-999,-99.99,,,-99.99,,2013-03-05 20:32:00,
2013-03-05 12:42:00,54.0,-99.9,30.00,SSW,197,2.0,9.0,-999,-99.99,,,-99.99,,2013-03-05 20:42:00,
2013-03-05 12:52:00,53.0,-99.9,29.99,South,176,5.0,14.0,-999,-99.99,,,-99.99,,2013-03-05 20:52:00,
2013-03-05 13:02:00,54.0,-99.9,29.98,SW,215,6.0,13.0,-999,-99.99,,,-99.99,,2013-03-05 21:02:00,
2013-03-05 13:11:00,53.0,-99.9,29.98,SSE,153,8.0,21.0,-999,-99.99,,,-99.99,,2013-03-05 21:11:00,
2013-03-05 13:22:00,54.0,-99.9,29.98,South,188,6.0,22.0,-999,-99.99,,,-99.99,,2013-03-05 21:22:00,
2013-03-05 13:32:00,53.0,-99.9,29.97,East,96,4.0,18.0,-999,-99.99,,,-99.99,,2013-03-05 21:32:00,
2013-03-05 13:42:00,54.0,-99.9,29.97,SE,142,9.0,21.0,-999,-99.99,,,-99.99,,2013-03-05 21:42:00,
2013-03-05 13:52:00,53.0,-99.9,29.96,South,172,9.0,16.0,-999,-99.99,,,-99.99,,2013-03-05 21:52:00,
2013-03-05 14:01:00,55.0,-99.9,29.95,SE,140,5.0,23.0,-999,-99.99,,,-99.99,,2013-03-05 22:01:00,
2013-03-05 14:12:00,53.0,-99.9,29.94,SE,131,12.0,18.0,-999,-99.99,,,-99.99,,2013-03-05 22:12:00,
2013-03-05 14:22:00,54.0,-99.9,29.94,SE,133,6.0,12.0,-999,-99.99,,,-99.99,,2013-03-05 22:22:00,
2013-03-05 14:32:00,55.0,-99.9,29.94,SSW,196,4.0,11.0,-999,-99.99,,,-99.99,,2013-03-05 22:32:00,
2013-03-05 14:42:00,54.0,-99.9,29.93,SE,142,14.0,26.0,-999,-99.99,,,-99.99,,2013-03-05 22:42:00,
2013-03-05 14:52:00,54.0,-99.9,29.93,SSE,167,8.0,16.0,-999,-99.99,,,-99.99,,2013-03-05 22:52:00,
2013-03-05 15:01:00,54.0,-99.9,29.93,SE,145,14.0,26.0,-999,-99.99,,,-99.99,,2013-03-05 23:01:00,
2013-03-05 15:11:00,54.0,-99.9,29.93,SE,127,10.0,21.0,-999,-99.99,,,-99.99,,2013-03-05 23:11:00,
2013-03-05 15:22:00,54.0,-99.9,29.93,SE,140,10.0,19.0,-999,-99.99,,,-99.99,,2013-03-05 23:22:00,
2013-03-05 15:32:00,53.0,-99.9,29.93,SE,125,11.0,21.0,-999,-99.99,,,-99.99,,2013-03-05 23:32:00,
2013-03-05 15:42:00,53.0,-99.9,29.93,SE,124,11.0,18.0,-999,-99.99,,,-99.99,,2013-03-05 23:42:00,
2013-03-05 15:53:00,53.0,-99.9,29.93,SE,126,13.0,22.0,-999,-99.99,,,-99.99,,2013-03-05 23:53:00,
2013-03-05 16:02:00,53.0,-99.9,29.93,SE,126,13.0,22.0,-999,-99.99,,,-99.99,,2013-03-06 00:02:00,
2013-03-05 16:11:00,53.0,-99.9,29.91,ESE,123,19.0,23.0,-999,-99.99,,,-99.99,,2013-03-06 00:11:00,
2013-03-05 16:22:00,53.0,-99.9,29.91,SE,133,13.0,22.0,-999,-99.99,,,-99.99,,2013-03-06 00:22:00,
2013-03-05 16:32:00,53.0,-99.9,29.90,SE,131,17.0,21.0,-999,-99.99,,,-99.99,,2013-03-06 00:32:00,
2013-03-05 16:42:00,53.0,-99.9,29.89,SE,132,19.0,24.0,-999,-99.99,,,-99.99,,2013-03-06 00:42:00,
2013-03-05 16:52:00,54.0,-99.9,29.89,SE,133,15.0,24.0,-999,-99.99,,,-99.99,,2013-03-06 00:52:00,
2013-03-05 17:02:00,54.0,-99.9,29.88,SE,127,15.0,22.0,-999,-99.99,,,-99.99,,2013-03-06 01:02:00,
2013-03-05 17:11:00,54.0,-99.9,29.88,SE,136,17.0,25.0,-999,-99.99,,,-99.99,,2013-03-06 01:11:00,
2013-03-05 17:22:00,54.0,-99.9,29.87,ESE,121,18.0,21.0,-999,-99.99,,,-99.99,,2013-03-06 01:22:00,
2013-03-05 17:32:00,55.0,-99.9,29.86,SE,134,17.0,26.0,-999,-99.99,,,-99.99,,2013-03-06 01:32:00,
2013-03-05 17:42:00,55.0,-99.9,29.87,SE,134,10.0,25.0,-999,-99.99,,,-99.99,,2013-03-06 01:42:00,
2013-03-05 17:52:00,55.0,-99.9,29.86,SE,136,11.0,23.0,-999,-99.99,,,-99.99,,2013-03-06 01:52:00,
2013-03-05 18:01:00,55.0,-99.9,29.86,SE,136,11.0,23.0,-999,-99.99,,,-99.99,,2013-03-06 02:01:00,
2013-03-05 18:11:00,54.0,-99.9,29.86,SE,143,13.0,26.0,-999,-99.99,,,-99.99,,2013-03-06 02:11:00,
2013-03-05 18:22:00,54.0,-99.9,29.85,SE,141,13.0,23.0,-999,-99.99,,,-99.99,,2013-03-06 02:22:00,
2013-03-05 18:32:00,54.0,-99.9,29.84,SE,136,16.0,30.0,-999,-99.99,,,-99.99,,2013-03-06 02:32:00,
2013-03-05 18:42:00,54.0,-99.9,29.85,SE,134,14.0,27.0,-999,-99.99,,,-99.99,,2013-03-06 02:42:00,
2013-03-05 18:52:00,54.0,-99.9,29.85,SE,143,11.0,19.0,-999,-99.99,,,-99.99,,2013-03-06 02:52:00,
2013-03-05 19:02:00,54.0,-99.9,29.85,SE,142,15.0,26.0,-999,-99.99,,,-99.99,,2013-03-06 03:02:00,
2013-03-05 19:11:00,54.0,-99.9,29.86,SE,137,12.0,24.0,-999,-99.99,,,-99.99,,2013-03-06 03:11:00,
2013-03-05 19:22:00,53.0,-99.9,29.86,SE,140,14.0,20.0,-999,-99.99,,,-99.99,,2013-03-06 03:22:00,
2013-03-05 19:32:00,53.0,-99.9,29.86,SE,136,13.0,19.0,-999,-99.99,,,-99.99,,2013-03-06 03:32:00,
2013-03-05 19:42:00,53.0,-99.9,29.85,SE,131,15.0,22.0,-999,-99.99,,,-99.99,,2013-03-06 03:42:00,
2013-03-05 19:53:00,53.0,-99.9,29.84,SE,128,19.0,26.0,-999,-99.99,,,-99.99,,2013-03-06 03:53:00,
2013-03-05 20:02:00,53.0,-99.9,29.83,SE,125,21.0,29.0,-999,-99.99,,,-99.99,,2013-03-06 04:02:00,
2013-03-05 20:11:00,53.0,-99.9,29.82,SE,132,21.0,28.0,-999,-99.99,,,-99.99,,2013-03-06 04:11:00,
2013-03-05 20:22:00,53.0,-99.9,29.82,SE,125,19.0,27.0,-999,-99.99,,,-99.99,,2013-03-06 04:22:00,
2013-03-05 20:32:00,53.0,-99.9,29.82,SE,130,16.0,28.0,-999,-99.99,,,-99.99,,2013-03-06 04:32:00,
2013-03-05 20:42:00,53.0,-99.9,29.83,SE,142,15.0,23.0,-999,-99.99,,,-99.99,,2013-03-06 04:42:00,
2013-03-05 20:52:00,53.0,-99.9,29.82,SE,132,18.0,24.0,-999,-99.99,,,-99.99,,2013-03-06 04:52:00,
2013-03-05 21:02:00,53.0,-99.9,29.83,SE,139,12.0,21.0,-999,-99.99,,,-99.99,,2013-03-06 05:02:00,
2013-03-05 21:12:00,53.0,-99.9,29.82,SE,134,15.0,22.0,-999,-99.99,,,-99.99,,2013-03-06 05:12:00,
2013-03-05 21:23:00,52.0,-99.9,29.82,SE,134,15.0,24.0,-999,-99.99,,,-99.99,,2013-03-06 05:23:00,
2013-03-05 21:32:00,52.0,-99.9,29.82,SE,137,20.0,26.0,-999,-99.99,,,-99.99,,2013-03-06 05:32:00,
2013-03-05 21:42:00,52.0,-99.9,29.82,SE,137,18.0,26.0,-999,-99.99,,,-99.99,,2013-03-06 05:42:00,
2013-03-05 21:52:00,51.0,-99.9,29.82,SE,136,17.0,26.0,-999,-99.99,,,-99.99,,2013-03-06 05:52:00,
2013-03-05 22:02:00,51.0,-99.9,29.82,SE,140,16.0,24.0,-999,-99.99,,,-99.99,,2013-03-06 06:02:00,
2013-03-05 22:12:00,51.0,-99.9,29.83,SE,137,14.0,23.0,-999,-99.99,,,-99.99,,2013-03-06 06:12:00,
2013-03-05 22:22:00,51.0,-99.9,29.81,SE,131,21.0,27.0,-999,-99.99,,,-99.99,,2013-03-06 06:22:00,
2013-03-05 22:32:00,51.0,-99.9,29.81,SE,129,22.0,28.0,-999,-99.99,,,-99.99,,2013-03-06 06:32:00,
2013-03-05 22:42:00,51.0,-99.9,29.81,SE,129,19.0,26.0,-999,-99.99,,,-99.99,,2013-03-06 06:42:00,
2013-03-05 22:52:00,51.0,-99.9,29.82,SE,132,16.0,26.0,-999,-99.99,,,-99.99,,2013-03-06 06:52:00,
2013-03-05 23:02:00,51.0,-99.9,29.81,SE,127,19.0,25.0,-999,-99.99,,,-99.99,,2013-03-06 07:02:00,
2013-03-05 23:11:00,51.0,-99.9,29.82,SE,141,16.0,36.0,-999,-99.99,,,-99.99,,2013-03-06 07:11:00,
2013-03-05 23:22:00,51.0,-99.9,29.81,SE,138,17.0,27.0,-999,-99.99,,,-99.99,,2013-03-06 07:22:00,
2013-03-05 23:32:00,51.0,-99.9,29.81,SE,133,19.0,28.0,-999,-99.99,,,-99.99,,2013-03-06 07:32:00,
2013-03-05 23:42:00,51.0,-99.9,29.82,SE,139,15.0,21.0,-999,-99.99,,,-99.99,,2013-03-06 07:42:00,
2013-03-05 23:52:00,51.0,-99.9,29.82,SE,132,17.0,28.0,-999,-99.99,,,-99.99,,2013-03-06 07:52:00,